Marisat 102

operational
NORAD ID: 9478 Int'l Des: 1976-101 Owner: COM Country: US
HEO

About Marisat 102

Description loading...

Live Position

Loading 3D Globe...

Upcoming Passes

Altitude History

Altitude vs Time

uPlot chart will show altitude changes over time

Two-Line Element Set

1 9478U 76101A 25278.21569203 -.00000119 00000-0 00000+0 0 9996
2 9478 6.3534 310.5376 0105006 345.2008 184.7285 0.97591467120871
Epoch: Oct 5, 2025 • Age: 26 hours

Current Status

Altitude 36938.0 km
Velocity 3.02 km/s
Sub-Earth Point -1.81°S, 17.32°E
Type other

Large Constellations

Loading constellations...